Dewpoint
32 30 28 28 38 34 30 39 37 42 47 45 48 52 56 57 56 56 55 54 53 53 54 55 56 56 56 56 55 55 55 55 56 58 58 57 56 56 55 55 54 55 54 54
25 23 24 27 28 34 39 39 39 42 46 44 49 52 55 57 56 56 56 55 55 55 55 56 56 56 56 55 56 56 56 56 56 57 57 57 55 56 56 56 56 56 55 54
24 23 26 25 29 35 37 38 37 37 50 52 51 48 53 56 57 57 56 56 56 55 55 56 56 57 57 56 56 57 57 57 57 57 57 57 56 55 54 54 53 54 54 54
25 25 24 20 24 35 33 37 38 46 41 37 47 39 48 52 54 54 55 55 56 56 56 56 57 57 57 57 57 57 57 58 58 57 56 56 55 53 54 53 54 55 55 55
24 22 20 28 27 34 32 34 36 39 39 40 44 41 42 49 49 51 52 54 53 55 56 56 56 56 57 57 58 58 58 57 57 57 56 55 54 53 54 53 53 54 55 55
24 25 19 21 30 34 39 37 32 28 29 24 34 41 40 45 48 49 50 48 51 52 53 54 55 56 57 56 56 56 55 55 55 55 54 53 52 53 52 52 52 52 53 54
24 22 25 36 36 37 36 33 30 29 28 27 41 40 42 45 47 49 46 48 49 51 52 52 52 53 55 54 56 55 54 54 53 53 53 54 53 52 52 52 52 52 52 52
22 23 34 37 33 33 34 36 35 28 26 26 41 39 40 47 49 48 45 48 46 50 51 50 53 53 53 54 54 54 54 54 52 52 53 53 53 53 53 52 52 51 51 53
30 31 36 37 37 37 36 30 34 27 27 24 31 39 43 48 49 48 44 44 45 48 47 46 49 51 51 50 48 52 52 52 51 50 51 53 53 52 52 52 51 51 52 53
36 30 37 37 37 34 35 32 30 30 26 23 29 39 39 43 46 47 44 43 44 45 44 44 45 46 46 44 45 48 48 49 47 49 52 52 52 52 52 52 51 50 51 52
38 35 33 36 33 30 29 28 30 28 30 25 27 32 42 42 44 47 46 43 43 42 42 39 40 42 39 39 41 43 43 44 48 47 48 48 49 49 49 50 50 50 51 51
43 37 35 34 33 33 33 32 30 28 27 30 29 29 39 43 43 46 44 42 43 39 34 37 37 36 37 40 41 43 44 43 43 44 46 46 48 48 48 48 49 50 50 51
38 34 31 29 27 30 34 36 31 31 30 29 26 32 42 42 42 43 42 41 41 36 40 37 34 36 37 39 40 43 44 45 46 47 46 46 46 47 48 48 49 49 50 51
45 37 32 28 28 30 35 36 32 30 27 28 30 31 36 41 41 42 43 43 42 40 39 38 41 41 43 44 45 46 47 46 45 45 44 44 44 46 49 50 49 49 50 51
40 33 36 36 37 39 37 36 31 31 31 28 29 36 38 41 42 42 43 40 35 38 40 41 42 43 44 46 46 45 45 46 45 42 43 44 45 46 47 47 48 49 49 50
43 35 39 37 37 40 38 39 33 35 38 38 39 38 41 41 43 44 44 34 40 41 41 42 44 45 45 46 44 43 45 45 45 42 43 44 44 45 46 46 48 48 48 49
41 40 38 36 39 39 34 39 39 37 41 40 34 36 34 32 34 34 35 40 40 40 41 42 43 44 45 44 43 42 45 43 43 43 43 44 44 44 46 46 47 46 47 49
43 42 41 37 36 29 39 46 46 41 40 37 36 34 36 37 40 39 40 40 40 40 40 42 44 44 44 43 43 43 43 42 43 42 42 43 44 44 46 45 45 44 46 48
46 44 39 35 34 36 43 46 43 40 39 35 33 37 38 39 38 38 41 41 40 41 41 42 44 44 43 43 43 43 42 41 41 41 42 43 44 44 44 44 43 44 46 48
45 46 42 38 33 32 40 48 48 41 33 37 33 36 37 35 30 32 40 42 42 42 42 44 44 42 43 42 43 43 41 41 40 40 42 43 44 44 42 43 43 44 46 49
43 43 39 38 37 38 45 47 47 34 36 36 35 35 35 32 34 36 41 42 42 41 43 44 43 41 41 42 43 41 39 39 40 42 43 43 44 43 42 42 43 44 45 49
40 39 39 39 35 34 46 43 38 41 39 37 37 37 37 38 39 41 41 41 41 41 43 42 41 41 42 42 42 40 38 39 40 42 43 43 43 43 40 42 42 44 45 48
41 41 40 38 39 45 47 44 44 39 35 37 37 39 39 38 38 40 40 40 39 41 42 41 40 41 42 43 43 41 40 40 40 41 42 41 41 42 40 41 42 45 46 48
46 45 44 43 43 42 41 37 38 38 37 38 39 39 37 36 37 39 41 40 39 41 42 42 42 41 40 40 41 42 42 41 41 41 42 41 40 43 39 39 43 46 47 47
44 43 42 39 39 41 40 38 39 39 39 39 40 39 38 37 37 39 40 41 39 40 41 42 41 41 41 41 41 41 42 42 42 43 42 41 39 40 39 40 44 46 48 46
43 40 35 33 39 41 40 40 39 36 36 36 35 36 36 37 36 38 40 41 40 40 41 40 42 42 41 42 42 42 43 43 43 43 42 40 39 38 39 39 42 43 42 41
Lifted_Index
1 1 1 1 1 1 1 -0 -0 -1 -1 -1 -2 -2 -3 -3 -3 -2 -1 -1 -1 -1 -1 -1 -0 -0 -0 0 1 1 1 1 2 2 2 1 1 0 0 0 1 1 1 2
1 1 1 1 1 1 0 -0 -0 -1 -1 -1 -2 -2 -3 -3 -3 -2 -2 -1 -1 -1 -1 -1 -1 -1 -0 -0 0 0 0 1 1 1 1 1 1 0 0 0 1 1 2 2
1 0 0 1 1 0 -0 -1 -1 -1 -1 -2 -2 -2 -2 -2 -3 -2 -2 -2 -2 -2 -3 -3 -2 -2 -1 -1 -1 -1 -0 0 1 1 1 1 1 1 1 1 1 2 2 2
0 0 0 0 0 0 -0 -1 -1 -1 -1 -1 -1 -1 -1 -2 -2 -2 -3 -3 -3 -3 -3 -3 -3 -3 -2 -2 -1 -1 -0 0 1 1 1 1 1 2 2 2 2 3 3 3
0 0 0 0 0 0 -1 -1 -1 -1 -1 -1 -1 -1 -1 -1 -1 -2 -2 -3 -2 -3 -3 -3 -3 -2 -2 -2 -1 0 1 1 2 2 2 2 2 3 2 3 3 4 4 4
1 0 0 0 0 -0 -1 -1 -1 -1 -1 -0 -0 -0 0 -0 -1 -1 -2 -2 -2 -2 -2 -2 -1 -1 -1 -1 0 1 2 3 3 3 3 3 3 3 3 4 4 5 5 5
0 0 0 -0 -0 -1 -1 -2 -1 -1 -1 -0 0 1 1 0 -0 -1 -1 -1 -1 -1 -1 -1 -0 -0 0 1 2 2 3 3 3 4 4 3 3 3 4 4 5 5 5 5
0 0 -0 -1 -1 -1 -1 -1 -1 -1 -0 0 1 1 1 0 -0 -0 -1 -1 -1 -0 0 0 0 0 1 2 3 3 3 3 4 4 4 3 3 3 4 5 5 5 5 5
0 0 -0 -1 -1 -1 -1 -1 -0 -0 -0 0 1 1 1 0 -0 -1 -1 -1 -0 -0 0 1 1 1 2 3 4 4 3 3 4 4 4 3 3 4 5 5 5 5 5 5
-0 -0 -0 -0 -0 -0 0 0 0 0 1 1 1 1 1 0 -0 -1 -1 -1 -1 -1 0 1 2 2 2 4 5 4 4 4 4 4 4 4 4 4 5 5 5 5 4 4
-1 -0 -0 -0 0 1 1 1 1 1 1 1 2 2 1 0 -0 -1 -1 -1 -1 -1 0 1 2 2 3 4 5 5 4 4 4 4 4 4 4 4 5 5 5 5 4 4
-1 -0 -0 0 1 1 1 1 1 1 2 2 2 2 1 0 -0 -1 -1 -1 -1 -0 0 1 2 3 4 4 4 4 4 4 4 4 4 4 4 5 5 5 5 4 4 4
-1 -0 -0 0 1 1 1 1 1 2 2 2 2 2 1 1 0 -0 -1 -1 -1 0 1 2 3 4 4 4 4 4 4 4 4 4 4 5 5 6 5 5 5 5 4 3
-1 -1 -0 0 1 1 0 0 1 1 2 1 1 1 1 1 1 0 -0 -0 -0 0 1 2 3 3 3 3 3 3 3 3 3 4 5 6 7 7 6 5 5 5 4 3
-1 -1 -1 -0 0 0 0 0 1 1 1 1 1 1 1 1 1 0 0 0 -0 1 2 3 3 2 2 2 2 3 3 3 4 5 6 7 8 8 7 6 6 5 4 3
-1 -1 -1 -0 -0 -0 0 0 1 1 1 1 1 1 1 1 1 0 0 0 1 1 2 2 2 1 1 2 3 4 4 4 5 6 7 8 8 8 7 6 6 5 4 4
-1 -1 -1 -1 -0 -0 0 0 0 0 0 1 2 2 2 2 2 1 1 2 2 2 2 2 1 1 2 3 3 4 5 6 7 8 8 9 9 8 8 7 6 6 5 4
-1 -1 -1 -1 -0 0 0 -0 -0 0 1 2 3 3 3 3 3 3 3 3 3 3 2 1 2 2 3 3 4 5 6 7 8 8 9 9 9 8 8 7 7 6 5 3
-2 -2 -1 -1 -0 0 0 -0 0 1 1 2 3 3 4 4 4 5 5 4 3 2 2 2 2 3 4 4 5 5 6 8 8 9 9 9 8 8 8 7 7 6 4 3
-2 -2 -1 -0 0 1 0 0 0 1 2 3 4 4 5 5 5 5 5 4 3 2 2 3 3 4 4 5 5 6 7 8 8 9 9 8 8 8 7 7 6 5 4 3
-1 -1 -1 0 1 1 0 0 1 2 3 4 5 6 6 6 6 5 4 4 3 2 3 3 4 4 5 5 6 6 7 8 8 8 8 8 8 7 6 6 5 4 3 2
-1 -0 0 0 1 1 0 1 1 3 4 5 5 6 6 6 5 5 4 4 3 3 3 4 4 4 5 5 5 6 7 7 8 8 8 8 7 6 5 4 3 3 2 2
-0 0 0 1 1 1 1 1 2 3 4 5 6 6 6 6 5 5 5 4 4 3 4 4 4 4 4 5 5 6 6 7 8 8 8 8 7 5 4 3 2 1 1 1
1 1 1 1 2 2 2 2 3 4 5 6 6 6 6 6 6 6 6 5 4 4 4 4 4 4 4 5 5 6 6 7 7 7 8 8 7 5 3 2 1 1 1 2
2 2 2 2 3 3 3 4 4 4 5 6 6 7 7 7 7 6 6 5 5 4 4 4 4 4 4 4 5 5 6 6 7 7 7 7 6 5 3 2 1 1 2 2
3 2 2 3 4 5 5 4 4 5 6 6 7 7 7 7 7 6 6 5 5 4 4 4 4 4 4 4 5 5 6 6 7 7 7 7 6 5 3 2 2 2 2 2